Chico, CA

9:42 AM PDT on September 30, 2016 (GMT -0700)
Chico Municipal

Weather History for KCIC - October, 2013

Change the Weather History Date:

Thursday, October 3, 2013

  Actual Average (KOVE) Record (KOVE)
Temperature  
Mean Temperature 62 °F -  
Max Temperature 75 °F 83 °F 99 °F (1958)
Min Temperature 50 °F 51 °F 42 °F (1954)
Degree Days  
Heating Degree Days 2    
Growing Degree Days 12 (Base 50)    
Moisture  
Dew Point 30 °F    
Average Humidity 34    
Maximum Humidity 50    
Minimum Humidity 15    
Precipitation  
Precipitation 0.00 in - - ()
Sea Level Pressure  
Sea Level Pressure 30.06 in    
Wind  
Wind Speed 17 mph (NNW)    
Max Wind Speed 29 mph    
Max Gust Speed 40 mph    
Visibility 9 miles    
Events      
Averages and records for this station are not official NWS values.
T = Trace of Precipitation, MM = Missing Value Source: NWS Daily Summary

Daily Weather History Graph

Daily Weather History Graph

Search for Another Location

Airport or City:

Trip Planner

Search our weather history database for the weather conditions in past years. The results will help you decide how hot, cold, wet, or windy it might be!

Date:

Astronomy

Oct. 03, 2013 Rise Set
Actual Time 7:05 AM PDT 6:46 PM PDT
Civil Twilight 6:39 AM PDT 7:12 PM PDT
Nautical Twilight 6:07 AM PDT 7:44 PM PDT
Astronomical Twilight 5:36 AM PDT 8:15 PM PDT
Moon 5:44 AM PDT (10/3) 5:57 PM PDT (10/3)
Length of Visible Light 12h 33m
Length of Day
11h 40m
Waning Crescent, 2% of the Moon is Illuminated
Oct 3
Waning Crescent
Oct 4
New
Oct 11
First Quarter
Oct 18
Full
Oct 26
Last Quarter

Hourly Weather History & Observations

Time (PDT) Temp. Dew Point Humidity Pressure Visibility Wind Dir Wind Speed Gust Speed Precip Events Conditions
12:15 AM 57.2 °F 35.6 °F 44% 30.01 in 10.0 mi NNW 13.8 mph - N/A   Clear
12:35 AM 55.4 °F 35.6 °F 47% 30.01 in 10.0 mi NW 15.0 mph - N/A   Clear
12:55 AM 57.2 °F 35.6 °F 44% 30.01 in 10.0 mi NNW 12.7 mph - N/A   Clear
1:15 AM 55.4 °F 35.6 °F 47% 30.01 in 10.0 mi NNW 15.0 mph - N/A   Clear
1:35 AM 55.4 °F 35.6 °F 47% 30.02 in 10.0 mi NNW 15.0 mph - N/A   Clear
1:55 AM 55.4 °F 35.6 °F 47% 30.02 in 10.0 mi NW 17.3 mph - N/A   Clear
2:15 AM 55.4 °F 35.6 °F 47% 30.02 in 10.0 mi NW 16.1 mph - N/A   Clear
2:35 AM 55.4 °F 33.8 °F 44% 30.02 in 10.0 mi NW 17.3 mph - N/A   Clear
2:55 AM 55.4 °F 32.0 °F 41% 30.01 in 10.0 mi NW 19.6 mph 23.0 mph N/A   Clear
3:15 AM 55.4 °F 32.0 °F 41% 30.03 in 10.0 mi NW 20.7 mph - N/A   Clear
3:35 AM 55.4 °F 32.0 °F 41% 30.03 in 10.0 mi NW 19.6 mph - N/A   Clear
3:55 AM 55.4 °F 32.0 °F 41% 30.03 in 10.0 mi NW 20.7 mph 25.3 mph N/A   Clear
4:15 AM 55.4 °F 33.8 °F 44% 30.03 in 10.0 mi NW 21.9 mph - N/A   Clear
4:35 AM 53.6 °F 33.8 °F 47% 30.03 in 10.0 mi NW 19.6 mph - N/A   Clear
4:55 AM 53.6 °F 32.0 °F 44% 30.03 in 10.0 mi NW 19.6 mph 25.3 mph N/A   Clear
5:15 AM 53.6 °F 32.0 °F 44% 30.03 in 10.0 mi NW 21.9 mph - N/A   Clear
5:35 AM 53.6 °F 32.0 °F 44% 30.03 in 10.0 mi NW 20.7 mph - N/A   Clear
5:55 AM 53.6 °F 32.0 °F 44% 30.03 in 10.0 mi NW 20.7 mph - N/A   Clear
6:15 AM 53.6 °F 33.8 °F 47% 30.04 in 10.0 mi NW 16.1 mph 23.0 mph N/A   Clear
6:35 AM 51.8 °F 33.8 °F 50% 30.05 in 10.0 mi NNW 15.0 mph - N/A   Clear
6:55 AM 51.8 °F 32.0 °F 47% 30.06 in 10.0 mi NNW 13.8 mph - N/A   Clear
6:58 AM 51.8 °F 32.0 °F 47% 30.06 in 80.0 mi NW 18.4 mph - N/A   Clear
7:15 AM 50.0 °F 32.0 °F 50% 30.06 in 10.0 mi NW 15.0 mph - N/A   Clear
7:35 AM 51.8 °F 32.0 °F 47% 30.07 in 10.0 mi NW 15.0 mph - N/A   Clear
7:50 AM 53.6 °F 32.0 °F 44% 30.06 in 80.0 mi NW 18.4 mph - N/A   Clear
8:50 AM 59.0 °F 32.0 °F 36% 30.08 in 80.0 mi NW 20.7 mph - N/A   Clear
9:50 AM 62.6 °F 32.0 °F 32% 30.09 in 80.0 mi NNW 28.8 mph - N/A   Partly Cloudy
10:50 AM 66.2 °F 28.4 °F 24% 30.09 in 80.0 mi NNW 20.7 mph 29.9 mph N/A   Clear
11:58 AM 69.8 °F 28.4 °F 21% 30.07 in 80.0 mi NNW 25.3 mph 34.5 mph N/A   Partly Cloudy
12:51 PM 71.6 °F 26.6 °F 19% 30.06 in 80.0 mi NW 28.8 mph 40.3 mph N/A   Partly Cloudy
1:52 PM 73.4 °F 24.8 °F 16% 30.05 in 80.0 mi NW 23.0 mph 34.5 mph N/A   Clear
2:50 PM 73.4 °F 26.6 °F 18% 30.04 in 80.0 mi WNW 23.0 mph 34.5 mph N/A   Clear
3:58 PM 75.2 °F 24.8 °F 15% 30.03 in 80.0 mi NW 23.0 mph 28.8 mph N/A   Clear
4:52 PM 75.2 °F 24.8 °F 15% 30.02 in 80.0 mi NW 23.0 mph - N/A   Clear
6:50 PM 71.6 °F 23.0 °F 16% 30.04 in 80.0 mi NNW 13.8 mph - N/A   Clear
7:55 PM 68.0 °F 23.0 °F 18% 30.07 in 8.0 mi NNE 6.9 mph - N/A   Clear
8:15 PM 71.6 °F 21.2 °F 15% 30.08 in 10.0 mi NNE 10.4 mph - N/A   Clear
8:35 PM 69.8 °F 23.0 °F 17% 30.09 in 10.0 mi NNE 13.8 mph 19.6 mph N/A   Clear
9:35 PM 68.0 °F 23.0 °F 18% 30.12 in 10.0 mi North 11.5 mph - N/A   Clear
9:55 PM 66.2 °F 23.0 °F 19% 30.12 in 9.0 mi NNW 11.5 mph - N/A   Clear
10:15 PM 64.4 °F 23.0 °F 21% 30.13 in 3.0 mi NNW 13.8 mph - N/A   Clear
10:35 PM 66.2 °F 23.0 °F 19% 30.13 in 4.0 mi NNW 11.5 mph 19.6 mph N/A   Clear
10:55 PM 66.2 °F 24.8 °F 21% 30.13 in 5.0 mi NNW 11.5 mph 18.4 mph N/A   Clear
11:15 PM 64.4 °F 24.8 °F 22% 30.13 in 5.0 mi NNW 8.1 mph - N/A   Clear
11:35 PM 64.4 °F 24.8 °F 22% 30.14 in 7.0 mi North 5.8 mph - N/A   Clear
11:55 PM 64.4 °F 24.8 °F 22% 30.13 in 4.0 mi NW 10.4 mph - N/A   Clear